Wind_Speed
19 19 20 20 19 19 21 21 21 21 21 21 20 18 17 17 19 18 19 20 21 23 26 29 32 34 36 37 39 41 42 44 45 46 45 46 46 47 47 49 49 47 49 56 53
20 21 21 21 23 24 24 23 24 25 25 24 23 22 21 19 19 21 21 22 23 23 24 24 25 27 29 32 35 37 38 40 39 40 41 44 43 46 47 48 50 49 52 54 54
20 22 24 27 28 29 29 28 26 25 26 26 25 25 24 24 23 21 25 25 27 27 27 26 27 27 27 27 28 29 32 32 36 38 38 41 42 42 45 45 47 48 50 54 54
24 27 29 30 31 32 32 31 30 30 29 29 28 27 27 27 28 27 25 29 29 31 32 32 31 31 30 30 29 29 29 30 31 30 32 33 34 36 39 39 38 40 43 43 46
27 29 31 32 32 33 35 36 36 35 34 33 33 33 31 31 31 32 31 30 32 34 35 36 37 36 36 35 35 35 33 34 33 34 32 34 35 34 36 36 34 38 37 37 40
33 34 35 38 38 39 40 40 39 38 37 37 36 36 37 37 37 35 35 35 35 36 39 39 39 41 41 40 40 39 39 40 36 38 37 38 38 37 40 38 39 40 39 40 39
39 40 41 39 40 41 41 41 41 41 41 40 38 38 38 40 41 42 40 39 40 40 40 42 44 44 44 45 45 46 45 44 44 45 44 43 43 44 44 43 46 44 45 45 45
44 45 44 44 45 45 45 45 44 44 43 44 44 43 43 44 43 44 47 46 43 44 44 45 46 49 49 49 50 49 50 50 51 50 50 50 52 52 50 50 52 51 52 50 51
48 47 47 47 47 47 47 48 48 49 49 49 49 50 51 50 49 48 47 48 50 48 48 48 48 49 51 53 53 54 55 54 55 53 55 54 56 57 53 56 58 57 57 56 55
49 49 48 49 49 48 48 47 47 47 46 46 48 49 50 49 52 50 51 50 50 52 52 51 50 51 53 55 57 59 56 59 60 58 58 59 59 61 57 56 60 60 61 60 60
47 47 45 44 42 40 39 41 41 41 42 43 42 46 43 48 51 53 53 53 55 55 55 55 54 54 53 55 58 61 60 62 64 64 60 61 63 63 63 60 61 63 63 62 62
41 39 37 37 38 37 38 38 37 36 38 33 35 36 37 37 46 51 53 54 55 55 57 58 60 57 55 56 57 60 62 64 65 67 65 64 62 66 66 65 66 65 66 67 67
36 34 34 36 36 38 39 42 41 39 39 34 49 34 34 38 39 44 52 55 55 55 55 57 60 59 59 60 59 60 62 65 66 67 68 68 64 67 68 69 70 68 70 70 68
33 34 37 39 41 44 46 48 47 48 50 45 52 53 52 53 44 40 46 52 56 58 57 54 57 59 54 60 63 62 64 64 65 66 68 70 65 66 68 71 72 70 73 72 71
40 42 42 45 46 50 53 55 53 55 54 51 50 55 56 58 50 47 46 46 49 53 60 59 58 57 57 57 59 61 63 65 66 67 68 63 74 60 68 71 74 72 71 72 72
43 48 51 52 53 56 57 57 57 60 55 53 50 53 54 53 51 52 53 49 47 47 46 55 62 61 59 61 62 62 63 63 65 68 70 64 77 63 72 72 74 74 70 67 76
52 54 55 57 62 62 62 59 61 55 56 58 60 61 55 55 53 53 51 50 48 45 44 43 44 55 62 63 65 66 69 67 68 73 68 65 75 68 70 79 78 75 74 72 75
57 58 62 61 61 64 61 60 64 68 64 61 62 63 61 56 53 52 52 51 50 48 46 43 42 47 49 53 57 62 66 67 73 73 71 69 73 69 70 76 78 74 79 76 73
60 61 64 65 68 68 67 69 76 72 71 69 64 66 68 61 56 53 54 54 52 52 48 44 43 47 51 52 56 55 57 61 66 66 77 65 67 70 73 83 83 83 80 80 79
62 62 65 67 67 68 69 82 85 74 77 70 67 69 72 70 60 55 56 59 59 54 53 52 49 51 52 52 53 59 60 64 66 68 69 59 66 62 68 77 81 81 85 84 81
59 60 68 69 66 70 71 62 50 51 66 70 64 67 70 67 67 60 56 57 61 57 56 58 59 54 55 54 57 62 63 69 74 74 74 70 62 66 74 78 81 83 81 84 87
61 64 69 66 64 66 69 44 29 24 37 51 58 64 66 65 64 59 60 61 63 52 51 49 55 52 52 58 66 69 67 73 76 77 78 80 69 72 73 84 85 89 85 84 90
66 70 72 66 61 60 63 50 31 37 44 51 58 65 64 63 59 56 55 57 53 49 45 51 55 54 56 65 72 73 73 77 86 90 81 88 77 75 73 79 89 88 87 90 94
70 70 72 70 59 55 51 50 44 46 53 56 60 58 56 53 49 45 51 53 56 59 59 60 63 66 64 73 81 80 78 83 93 97 91 89 86 73 73 78 84 85 90 93 95
69 70 73 68 58 55 50 49 46 40 49 46 47 46 45 47 50 53 56 58 62 66 69 71 69 74 76 82 87 85 83 92 95 94 100 86 91 78 75 80 83 87 86 92 96
72 70 72 65 56 54 54 53 53 51 50 50 50 54 55 57 59 63 66 68 70 74 77 79 79 84 82 91 92 86 86 92 92 90 92 93 84 85 76 77 82 88 86 91 91
73 73 71 64 55 57 54 57 57 58 58 58 58 59 62 63 66 69 72 75 76 79 82 86 90 93 83 95 88 76 89 88 87 84 91 90 89 86 84 86 84 87 90 83 90
Wind_Direction
278 280 281 286 290 295 299 298 297 296 292 289 289 287 287 281 269 264 249 245 241 240 239 239 241 240 240 241 242 243 243 243 242 242 242 240 240 240 239 240 242 240 239 244 241
281 282 283 286 291 294 296 298 299 298 295 293 290 287 286 281 274 261 256 249 243 239 237 235 234 236 238 238 239 240 242 242 244 244 243 244 243 241 242 241 242 241 241 244 246
285 285 285 289 293 292 293 294 296 294 292 292 291 291 287 282 274 270 258 254 246 243 239 236 237 237 236 235 236 238 239 241 240 243 243 243 243 245 245 245 244 243 242 245 247
292 294 292 292 295 296 297 295 293 291 285 280 279 282 284 283 280 275 266 255 250 247 245 243 240 241 241 241 241 240 239 238 241 239 238 240 242 240 247 248 246 246 244 246 246
290 295 297 295 293 294 295 294 293 291 288 285 279 272 271 274 276 274 271 266 257 250 248 246 245 245 245 243 244 244 244 243 242 240 238 238 239 240 245 245 247 248 249 248 250
290 293 295 295 293 292 292 289 288 288 287 284 281 277 271 266 266 268 269 267 265 260 251 249 248 247 246 246 247 247 245 245 242 242 243 241 241 243 245 248 248 250 252 252 253
294 294 294 291 291 290 289 290 288 286 286 286 283 282 280 273 267 264 263 265 264 262 260 256 250 249 249 247 247 246 248 246 245 243 243 244 246 246 248 251 254 252 254 255 255
291 292 290 290 291 289 289 288 288 286 285 284 282 280 278 276 274 270 264 260 261 261 260 258 257 254 249 250 250 249 248 248 248 248 247 247 247 248 250 253 255 256 257 257 259
290 292 293 292 291 290 288 286 285 284 283 283 282 281 280 277 272 269 267 264 259 258 259 257 256 256 256 252 251 251 251 251 252 251 253 251 253 251 251 255 256 257 257 258 259
292 292 292 291 290 288 286 286 285 284 282 283 282 281 281 280 276 270 266 263 261 259 256 255 256 256 255 254 252 252 254 253 253 251 252 256 256 257 254 254 258 257 257 257 259
290 291 290 288 287 285 286 286 284 286 283 282 283 279 277 278 276 274 270 265 262 259 258 256 254 254 255 256 255 254 251 252 254 254 251 253 256 256 258 255 255 258 258 258 258
287 285 285 286 286 290 291 297 298 292 288 294 286 277 276 285 276 269 269 269 264 261 261 259 259 256 256 256 256 257 255 254 254 255 253 253 253 258 258 257 257 257 259 260 259
285 288 288 293 298 300 302 306 308 305 308 309 309 304 297 306 299 275 266 263 262 261 259 259 258 256 256 254 253 255 256 256 256 256 257 256 254 256 258 260 259 259 260 260 261
295 299 300 300 303 303 300 302 302 305 304 308 305 310 309 312 308 302 281 266 261 257 257 257 257 257 253 257 255 255 255 256 257 257 257 258 254 258 258 258 259 260 262 262 263
296 296 296 298 295 292 294 297 297 301 301 302 298 302 303 305 304 309 294 279 271 264 256 255 255 254 255 254 255 256 257 257 256 257 256 259 257 256 261 261 261 258 262 265 264
291 293 292 291 292 290 291 288 293 296 298 299 301 300 304 299 300 303 299 289 279 270 268 260 259 256 256 259 258 255 256 257 258 258 257 258 261 254 258 258 259 262 261 259 263
288 288 291 290 295 293 287 282 284 288 293 293 295 298 298 293 294 296 295 288 283 278 274 271 268 265 263 261 262 261 262 258 260 261 258 259 261 259 261 265 261 261 259 258 261
291 291 291 294 298 295 287 285 285 285 290 294 292 295 297 297 289 291 292 288 280 279 277 275 272 270 269 267 265 264 264 264 263 262 264 261 265 266 262 262 267 262 261 257 258
291 292 293 293 296 295 292 288 289 284 286 285 288 289 292 294 289 286 287 287 281 276 273 272 273 275 273 273 273 268 267 264 264 263 262 258 262 266 270 266 265 263 261 263 260
297 294 294 294 293 293 290 291 281 277 271 278 282 284 286 291 288 283 284 284 282 281 280 272 267 271 272 275 274 271 269 271 273 269 268 263 262 264 264 265 266 266 265 264 262
294 300 297 295 295 296 303 306 284 267 267 269 276 277 282 288 290 286 282 279 278 280 281 278 271 269 272 273 273 274 274 274 270 270 271 268 265 271 267 263 264 266 264 266 261
294 300 302 297 295 297 308 306 304 304 279 271 268 274 282 286 287 286 284 283 283 285 281 274 272 270 273 275 276 275 277 278 279 278 275 273 260 272 267 268 263 262 264 264 264
295 297 301 298 293 296 304 309 290 276 265 265 269 276 282 284 287 287 286 284 284 283 279 278 279 277 273 275 276 280 285 285 282 280 275 275 272 272 269 265 266 263 261 260 262
294 297 300 300 288 291 295 307 292 267 266 268 274 280 284 285 283 280 282 283 286 285 284 282 284 284 281 280 280 281 281 281 280 281 281 279 277 270 265 264 261 261 262 260 261
297 297 299 299 284 285 286 292 296 293 281 284 286 285 283 282 281 282 282 283 284 285 287 286 284 283 284 284 282 281 282 281 282 282 279 276 275 271 266 261 260 259 254 256 260
294 299 299 299 280 277 280 282 284 284 283 282 281 284 283 283 283 284 286 285 284 286 287 288 288 287 289 286 283 284 285 280 276 277 280 279 276 275 274 270 263 260 254 252 251
292 296 297 295 286 279 278 280 281 282 282 281 282 281 282 283 282 283 284 285 287 288 289 289 290 290 289 284 285 288 277 279 279 281 279 276 275 274 272 269 266 263 261 255 251
Height
10876 10876 10875 10875 10873 10872 10871 10870 10869 10868 10867 10866 10865 10864 10863 10862 10862 10862 10861 10862 10862 10863 10864 10865 10866 10868 10870 10872 10873 10874 10877 10879 10881 10883 10886 10888 10891 10892 10896 10899 10904 10910 10913 10904 10919
10873 10873 10872 10871 10870 10869 10868 10866 10865 10864 10863 10862 10860 10859 10859 10858 10857 10857 10858 10857 10858 10859 10859 10860 10861 10861 10863 10864 10866 10867 10869 10870 10875 10877 10879 10879 10883 10884 10886 10890 10893 10901 10900 10901 10905
10870 10869 10868 10867 10866 10865 10864 10862 10861 10860 10859 10857 10856 10855 10854 10853 10852 10852 10852 10852 10853 10853 10854 10855 10856 10856 10857 10859 10860 10861 10862 10865 10865 10868 10871 10871 10874 10876 10877 10880 10883 10888 10891 10891 10895
10866 10865 10864 10862 10861 10859 10857 10856 10855 10853 10852 10851 10850 10849 10848 10848 10846 10846 10846 10846 10846 10847 10848 10849 10850 10850 10851 10853 10854 10855 10857 10858 10860 10862 10863 10864 10866 10868 10868 10871 10875 10877 10879 10882 10884
10861 10860 10859 10857 10855 10853 10851 10850 10847 10845 10844 10843 10842 10842 10842 10841 10840 10839 10839 10839 10840 10840 10840 10842 10843 10843 10844 10845 10847 10848 10850 10851 10853 10854 10857 10858 10859 10861 10862 10863 10867 10867 10870 10872 10873
10855 10854 10852 10850 10848 10846 10844 10842 10840 10837 10836 10834 10834 10833 10833 10834 10832 10832 10831 10831 10831 10832 10833 10833 10834 10835 10836 10838 10839 10840 10842 10842 10846 10846 10849 10851 10852 10855 10854 10857 10859 10859 10861 10863 10864
10847 10846 10844 10841 10839 10837 10835 10833 10832 10830 10828 10826 10826 10825 10823 10822 10823 10821 10822 10822 10822 10823 10823 10824 10824 10825 10827 10828 10830 10830 10832 10834 10836 10838 10840 10843 10844 10845 10846 10849 10847 10851 10851 10853 10854
10839 10837 10835 10833 10830 10827 10826 10824 10822 10820 10819 10817 10816 10815 10813 10812 10813 10812 10811 10811 10812 10812 10812 10813 10814 10815 10816 10817 10818 10821 10822 10824 10824 10828 10831 10833 10833 10835 10838 10838 10837 10840 10840 10842 10842
10829 10826 10824 10822 10819 10817 10815 10813 10811 10809 10807 10806 10804 10803 10801 10800 10800 10800 10800 10800 10800 10800 10800 10801 10802 10803 10804 10806 10807 10808 10809 10813 10814 10819 10818 10822 10821 10822 10830 10827 10827 10828 10829 10830 10830
10819 10816 10814 10811 10809 10806 10804 10802 10800 10798 10796 10795 10792 10791 10788 10787 10785 10786 10786 10787 10787 10788 10787 10788 10788 10789 10791 10793 10793 10793 10799 10798 10799 10804 10807 10808 10809 10808 10815 10817 10814 10816 10817 10818 10818
10810 10806 10803 10800 10798 10796 10793 10791 10789 10787 10786 10783 10780 10778 10778 10774 10773 10771 10771 10772 10773 10773 10774 10775 10774 10776 10778 10779 10779 10780 10783 10784 10783 10785 10794 10794 10794 10795 10797 10803 10802 10800 10802 10804 10805
10800 10797 10794 10791 10789 10786 10783 10780 10778 10777 10772 10773 10766 10765 10764 10763 10761 10759 10757 10758 10758 10759 10759 10760 10759 10764 10764 10763 10765 10765 10769 10769 10769 10770 10776 10779 10784 10778 10781 10784 10785 10787 10787 10786 10788
10790 10788 10785 10781 10779 10776 10773 10770 10767 10764 10763 10761 10751 10754 10751 10750 10747 10746 10744 10743 10744 10744 10744 10744 10743 10748 10747 10748 10749 10750 10751 10751 10755 10756 10759 10762 10770 10766 10766 10767 10767 10770 10768 10771 10773
10781 10779 10776 10774 10770 10767 10763 10761 10758 10754 10752 10754 10742 10740 10737 10736 10734 10732 10731 10729 10728 10729 10729 10731 10727 10733 10734 10731 10733 10736 10733 10736 10739 10739 10743 10743 10756 10752 10750 10748 10751 10755 10752 10756 10757
10771 10769 10766 10763 10761 10758 10754 10750 10747 10743 10738 10743 10740 10732 10727 10724 10721 10721 10717 10716 10713 10714 10715 10715 10715 10718 10718 10716 10717 10719 10718 10719 10721 10721 10723 10732 10726 10744 10732 10732 10731 10739 10739 10741 10739
10763 10759 10756 10752 10750 10746 10743 10739 10736 10731 10726 10725 10727 10719 10717 10712 10711 10709 10703 10702 10701 10700 10701 10702 10700 10703 10703 10702 10703 10705 10703 10704 10704 10702 10709 10717 10699 10730 10711 10712 10714 10718 10727 10728 10714
10752 10749 10745 10741 10738 10734 10729 10726 10723 10718 10714 10712 10712 10709 10705 10701 10699 10694 10695 10690 10687 10688 10687 10687 10687 10687 10687 10690 10688 10688 10685 10691 10690 10682 10696 10699 10682 10708 10703 10688 10696 10699 10701 10703 10700
10740 10736 10731 10726 10722 10718 10713 10711 10708 10704 10699 10699 10695 10695 10692 10689 10687 10684 10682 10678 10677 10675 10675 10676 10676 10672 10671 10672 10672 10673 10669 10672 10664 10669 10673 10684 10678 10686 10685 10675 10672 10680 10673 10683 10687
10728 10723 10717 10712 10707 10702 10696 10691 10685 10688 10686 10679 10681 10679 10678 10675 10675 10672 10668 10665 10662 10662 10665 10664 10666 10661 10657 10657 10654 10658 10655 10648 10644 10652 10644 10674 10667 10663 10665 10651 10651 10649 10657 10657 10662
10713 10709 10702 10697 10691 10684 10679 10667 10655 10670 10660 10664 10664 10664 10662 10660 10659 10658 10654 10649 10646 10650 10650 10652 10653 10649 10646 10644 10642 10635 10636 10633 10631 10630 10628 10651 10647 10652 10641 10627 10625 10630 10634 10638 10641
10698 10694 10683 10678 10673 10666 10659 10638 10627 10636 10640 10646 10649 10648 10647 10647 10642 10639 10639 10635 10632 10637 10637 10633 10635 10637 10631 10630 10626 10620 10620 10612 10608 10611 10608 10622 10635 10626 10613 10613 10607 10602 10612 10610 10614
10681 10677 10670 10663 10658 10651 10642 10632 10622 10626 10629 10632 10634 10633 10633 10630 10629 10623 10620 10616 10612 10621 10620 10616 10617 10623 10622 10614 10604 10601 10605 10596 10589 10589 10587 10586 10610 10596 10592 10585 10588 10581 10589 10591 10585
10666 10660 10652 10648 10643 10640 10630 10624 10622 10623 10624 10621 10620 10618 10617 10614 10612 10608 10604 10600 10597 10599 10605 10603 10600 10606 10608 10595 10586 10585 10585 10578 10560 10552 10569 10555 10578 10572 10579 10567 10555 10564 10569 10565 10559
10648 10645 10636 10629 10627 10626 10621 10615 10610 10610 10606 10608 10606 10605 10603 10598 10595 10596 10589 10586 10583 10580 10583 10584 10584 10579 10586 10574 10562 10564 10566 10554 10534 10524 10534 10533 10530 10551 10550 10540 10533 10537 10537 10540 10541
10631 10627 10619 10615 10610 10606 10608 10605 10599 10598 10594 10592 10591 10589 10587 10584 10581 10578 10576 10574 10568 10564 10561 10558 10561 10557 10557 10547 10537 10541 10545 10522 10508 10504 10485 10509 10493 10514 10518 10510 10507 10507 10514 10514 10512
10612 10607 10602 10598 10593 10593 10593 10587 10586 10584 10582 10579 10578 10572 10571 10569 10566 10560 10557 10553 10551 10545 10540 10536 10536 10528 10535 10512 10504 10515 10510 10487 10482 10480 10468 10459 10474 10472 10486 10488 10484 10478 10486 10487 10496
10592 10589 10585 10580 10578 10575 10577 10572 10569 10566 10563 10563 10562 10559 10553 10551 10546 10541 10538 10532 10529 10523 10516 10509 10502 10497 10509 10475 10481 10494 10458 10458 10455 10460 10441 10438 10438 10442 10445 10446 10451 10451 10444 10463 10470